STARLINK-4664, 53777

Orbit data source: Space-Track

STARLINK-4664, 53777 is a payload satellite owned by SpaceX/Seattle (US) in LEO that was launched on Sun, 11 Sep 2022 UTC via an FALCON 9 launch vehicle from the Air Force Eastern Test Range (AFETR). Payload-class satellites include a variety of spacecraft equipped with specific instruments for various scientific and technological missions. These include communications satellites like Starlink; space stations such as the ISS; scientific satellites like the Hubble; Earth observation satellites from companies like Planet Labs, Umbra, and HawkEye 360; GPS; miniature CubeSats for education and research; and military/defense satellites.

Loading next visibility...
Identifier
53777, 2022-111E
Orbit
LEO
Country
Flag of USUS
Related business
Manufacturer
SpaceX/Seattle
Mission
Operational Commercial Communications
Bus & Motor
STARLINK, Unknown motor
Mass
305 kg wet, ~290 kg dry
Launch date (UTC)
2022-09-11 (4 years ago)
Launch vehicle
FALCON 9
Launch site
Air Force Eastern Test Range (AFETR)
Object type
Payload
Rocket body
Debris
Shape & HBR
Box + 1 Pan, 10.1 m
Radar Cross Section
13.562 m², Large (>1 m²)

Expand to show TLE details & history
Last TLE update: 10 hours ago

TLE from 10 hours ago
0 STARLINK-4664
1 53777U 22111E   26127.90622795 -.00003411  00000-0 -19654-3 0  9993
2 53777  53.2198   8.4449 0001275  90.0482 270.0656 15.08797523202632
Epoch: 2026-05-07T21:44Z
TLE epoch observation values (Epoch: 2026-05-07T21:44:58.094Z)
Latitude
-0.00006°
Longitude
176.45714°
Altitude
540.77 km
Speed
7.593 km/s
True Right ascension
00h 33m 46s
True Declination
0° 00' 00"
Sunlit
Object was in daylight at epoch
Visualization orbit readout
Latitude
Unknown
Longitude
Unknown
Altitude
Unknown
Speed
Unknown
Apparent Right ascension
Unknown
Apparent Declination
Unknown
Sunlit
N/A
Visualization observer readout
Local Sidereal Time
16:08:12
Azimuth
Unknown
Elevation
Unknown
Doppler factor
Unknown
Orbital elements
Apogee altitude
541 km
Perigee altitude
539.236 km
Semi-major axis
6,918.255 km
Eccentricity
0.00013
Inclination
53.2198°
RAAN
8.4449°
Arg. of periapsis
90.0482°
True anomaly
270.05099°
Mean anomaly
270.0656°
Eccentric anomaly
270.05829°
Mean motion
3.7718 °/min
Orbital period
95.45 mins
BSTAR
-0.00019654
Loading maneuver chart data...
Computing Atmospheric mass density...
Loading historical data...
Loading historical data...
Loading historical data...
Loading historical data...
Loading historical data...
Loading historical data...
Loading historical data...

Documentation

Showing up to 5 results
|